www.pogodaiklimat.ru

ПОГОДА в Нью-Берне, NC

  • Прогноз погоды в Нью-Берне
  • Монитор погоды в Нью-Берне
  • Климат в Нью-Берне

АРХИВ ПОГОДЫ в Нью-Берне

Время (UTC), дата Ветер
(напр.,м/с)
 
Видим.   Явления Облачность Т
(С)
Тd
(С)
f
(%)
Тe
(С)
Тes
(С)
Комфортность

P
(гПа)

Po
(гПа)
Тmin
(С)
Tmax
(С)
R
(мм)
SD
(см)
03:54 21.03 СВ  11 км  слабый дождь  10/10 330 м  +11.1  +11.1  100  +8  +8    1016.7  1016.2         
03:59 21.03 С  14 км  слабый дождь  10/10 270 м  +11.1  +11.1  100  +8  +8      1015.9         
04:27 21.03 СВ  11 км  слабый дождь  10/8 270 м
[средняя] 
+11.1  +11.1  100  +8  +8      1015.5         
04:42 21.03 СВ  14 км    10/8 180 м
[средняя] 
+11.1  +11.1  100  +8  +8      1015.2         
04:54 21.03 СВ  8 км  слабый дождь, дымка  10/10 120 м  +11.7  +11.7  100  +9  +9    1015.4  1014.9  +10.0  +11.7  7.4   
05:54 21.03 В  13 км  слабый дождь  10/8 750 м
[средняя] 
+12.8  +12.2  96  +11  +11    1013.8  1013.2         
06:54 21.03 В  13 км  слабый дождь  10/5 1140 м
[средняя] 
+13.3  +12.8  97  +11  +11    1012.0  1011.5         
07:54 21.03 В  13 км  слабый дождь  10/8 1260 м
[средняя] 
+14.4  +13.3  93  +13  +13    1011.2  1010.5      2.3   
08:05 21.03 Ю  3 км  сильный дождь, дымка  10/8 1140 м
[средняя] 
+14.4  +13.3  93  +13  +13      1011.1         
08:26 21.03 Ю  4 км  слабый дождь, дымка  10/10 870 м  +14.4  +13.9  97  +13  +13      1010.8         
08:44 21.03 Ю  5 км  слабый дождь, дымка  10/8 630 м
[средняя] 
+14.4  +13.3  93  +13  +13      1010.8         
08:54 21.03 Ю  8 км  слабый дождь, дымка  10/10 570 м  +14.4  +13.3  93  +13  +13    1011.2  1010.5         
09:35 21.03 Ю  5 км  слабый дождь, дымка  10/8 210 м
[средняя] 
+13.9  +13.9  100  +12  +12      1010.1         
09:54 21.03 Ю  13 км    10/10 210 м  +13.3  +12.8  97  +11  +11    1010.8  1010.1         
10:12 21.03 Ю  8 км  слабый дождь, дымка  10/10 450 м  +12.8  +12.2  96  +10  +10      1009.8         
10:21 21.03 Ю  16 км    10/10 330 м  +12.8  +12.2  96  +11  +11      1009.8         
10:30 21.03 Ю  16 км    10/10 330 м  +12.8  +12.2  96  +11  +11      1009.8         
10:37 21.03 Ю  16 км    10/10 270 м  +12.8  +12.2  96  +11  +11      1009.8         
10:54 21.03 Ю  10 км  дымка  10/10 330 м  +12.2  +11.7  97  +9  +9    1010.5  1009.8  +11.7  +14.4  8.4   
11:06 21.03 Ю  16 км    10/10 330 м  +12.2  +11.7  97  +10  +10      1009.8         
11:40 21.03 Ю  4
{9} 
16 км    10/10 420 м  +12.2  +11.1  93  +10  +10      1009.8         
11:54 21.03 Ю  16 км    10/10 300 м  +11.7  +11.1  96  +9  +9    1010.2  1009.8         
12:06 21.03 Ю  16 км    10/10 240 м  +11.7  +11.1  96  +9  +9      1009.4         
12:54 21.03 ЮЗ  16 км    10/10 270 м  +12.8  +11.1  89  +10  +10    1009.4  1008.8         
13:13 21.03 ЮЗ  6
{9} 
16 км    10/10 300 м  +12.2  +10.6  90  +9  +9      1008.8         
13:46 21.03 ЮЗ  16 км    10/10 270 м  +11.7  +10.6  93  +9  +9      1008.8         
13:54 21.03 Ю  5
{9} 
16 км    10/10 270 м  +11.7  +10.6  93  +9  +9    1009.3  1008.8         
14:48 21.03 ЮЗ  6
{9} 
3 км  слабый дождь, дымка  10/10 210 м  +11.0  +10.0  94  +8  +8      1008.4         
14:54 21.03 ЮЗ  2 км  слабый дождь, дымка  10/10 210 м  +11.1  +10.0  93  +8  +8    1009.0  1008.4         
15:03 21.03 ЮЗ  4 км  дымка  10/10 210 м  +11.1  +10.0  93  +8  +8      1008.4         
15:12 21.03 ЮЗ  5 км  дымка  10/10 240 м  +11.1  +10.6  97  +8  +8      1008.1         
15:52 21.03 ЮЗ  6
{9} 
3 км  дымка  10/10 270 м  +11.0  +10.0  94  +7  +7      1007.8         
15:54 21.03 ЮЗ  4
{9} 
3 км  дымка  10/10 270 м  +10.6  +9.4  92  +8  +8    1008.4  1007.8         
16:13 21.03 ЮЗ  5
{9} 
2 км  слабый дождь, дымка  10/10 270 м  +10.6  +9.4  92  +7  +7      1007.8         
16:21 21.03 ЮЗ  3 км  дымка  10/10 300 м  +10.6  +9.4  92  +8  +8      1007.8         
16:24 21.03 ЮЗ  3 км  дымка  10/10 240 м  +10.0  +9.4  96  +6  +6      1007.4         
16:34 21.03 ЮЗ  6
{9} 
14 км    10/10 240 м  +10.0  +8.9  93  +6  +6      1007.4         
16:54 21.03 З  7
{9} 
16 км    10/10 240 м  +10.6  +9.4  92  +7  +7    1007.8  1007.1  +10.0  +13.3     
17:07 21.03 З  5
{8} 
16 км    10/10 300 м  +11.1  +9.4  89  +8  +8      1006.7         
17:47 21.03 З  16 км    10/10 480 м  +12.2  +9.4  83  +10  +10      1005.7         
17:54 21.03 З  16 км    10/10 600 м  +12.8  +9.4  80  +11  +11    1006.4  1005.7         
18:54 21.03 З  6
{11} 
16 км    10/10 660 м  +12.2  +8.3  77  +9  +9    1006.2  1005.4         
19:10 21.03 З  16 км    10/10 690 м  +12.8  +8.3  74  +10  +10      1005.4         
19:54 21.03 З  16 км    10/10 1020 м  +13.9  +8.3  69  +12  +12    1006.2  1005.7         
20:54 21.03 З  5
{9} 
16 км    8/8 1140 м  +13.9  +7.2  64  +12  +12    1006.4  1005.7         
21:54 21.03 З  16 км    ясно  +13.9  +7.8  67  +12  +13    1006.7  1006.1         
22:54 21.03 ЮЗ  16 км    ясно  +11.7  +7.2  74  +11  +11    1007.1  1006.4  +10.6  +14.4     
23:54 21.03 Ю  16 км    2/2 1950 м
[средняя] 
+8.3  +7.2  93  +7  +7    1007.2  1006.7         

 

Местоположение метеостанции Craven County Regional Airport: широта 35.0675 долгота -77.0472 высота над уровнем моря 5 м.

В архиве по умолчанию представлена погода в Нью-Берне за последние 1-2 суток. Обновление информации о фактической погоде в базе происходит ежечасно! Архивные данные за месяц целиком и за предыдущие месяцы Вы можете получить, выбрав интересующий диапазон дат из раскрывающегося списка и нажав кнопку "Ввод!".

Внимание! Архив погоды МЕТАР в базе сайта хранится не более 60 дней. Нет смысла пытаться выбрать более раннюю дату.

Внимание! Время в таблицах - всемирное. Для получения местного времени необходимо прибавить поправку, которая в Нью-Берне равна -5 ч.

Ветер - указаны скорость ветра в м/с и направление, откуда дует ветер: С - северный, СВ - северо-восточный, В - восточный, ЮВ - юго-восточный, Ю - южный, ЮЗ - юго-западный, З - западный, СЗ - северо-западный.
Видимость - горизонтальная дальность видимости в метрах или километрах. При видимости от 1 до 10 км при отсутствии осадков обычно наблюдается дымка, при ухудшении видимости до 1 км и менее - туман. В сухую погоду видимость может ухудшаться дымом, пылью или мглою.
Атмосферные явления - указаны явления, наблюдавшиеся в указанный момент времени.
Облачность - указаны через наклонную черту верхняя и нижняя облачность в баллах и высота нижней границы облаков в метрах. Внимание: облачность, как и прочие метеорологические величины в США измеряются автоматическими метеостанциями. Указанные значения в баллах носят условный характер и показывают процент времени, в течение которого, в среднем, лазерный луч высотомера отражался от облаков обратно.
T - Температура воздуха - температура, измеренная на высоте 2 м над землей.
Td - Температура точки росы - температура, при понижении до которой содержащийся в воздухе водяной пар достигнет насыщения.
f - Относительная влажность воздуха - влажноcть воздуха, измеренная на высоте 2 м над землей.
Te - Эффективная температура - температура, которую ощущает одетый по сезону человек в тени. Характеристика душности погоды. При расчете учитывается влияние влажности воздуха и скорости ветра на теплоощущения человека.
Tes - Эффективная температура на солнце - температура, которую ощущает человек, с поправкой на солнечный нагрев. Характеристика знойности погоды. Зависит от высоты солнца над горизонтом, облачности и скорости ветра. Ночью, в пасмурную погоду, а также при ветре 12 м/с и более поправка равна нулю.
P - Атмосферное давление - приведенное к уровню моря атмосферное давление.
Po - Атмосферное давление - измеренное на уровне метеостанции атмосферное давление.
Tmin - Минимальная температура - минимум температуры воздуха на высоте 2 м над землей.
Tmax - Максимальная температура - максимум температуры воздуха на высоте 2 м над землей.
R - Количество осадков - Количество выпавших осадков за 3 или 6 часов, мм.
SD - Снежный покров - Высота снежного покрова, см.